User: anonymous   Login
Location: Freistadt
(48.5112°N, 14.5013°E)
Time: 14:12:10
(UTC+02:00)
Language:

JY1SAT - Orbit

View from above orbital plane
View from above orbital plane
View from above satellite
View from above satellite

Ground track
Ground track

The orbit data is extracted from the following two-line orbital elements,

1 43803U 18099AX  23086.68294995  .00006390  00000-0  52041-3 0  9999
2 43803  97.5813 151.3859 0014696  35.1603 325.0587 14.99765872235478
Epoch (UTC): 27 March 2023 16:23:26
Eccentricity: 0.0014696
inclination: 97.5813°
perigee height: 557 km
apogee height: 578 km
right ascension of ascending node: 151.3859°
argument of perigee: 35.1603°
revolutions per day: 14.99765872
mean anomaly at epoch: 325.0587°
orbit number at epoch: 23547

The dashed part of the orbit path shows where the satellite is in the earth's shadow,  

DLR